Flag for Lithuania Weather past 2 weeks in Vilnius, Lithuania

Now
86 °F

Sunny.


Feels Like: 85 °F
Forecast: 60 / 83 °F
Wind: 3 mph from South

Location: Vilnius Airport

Current Time: Sep 1, 2015 at 7:14:14 PM

Latest Report: Sep 1, 2015 at 6:20 PM


Visibility: 10 mi

Pressure: 29.71 "Hg

Humidity: 40%

Dew point: 59 °F

Location of VilniusLocation

Historic Weather in Vilnius — Graph

°F

Vilnius temperature yesterday

Maximum temperature yesterday: 77 °F (at 3:20 PM)
Minimum temperature yesterday: 55 °F (at 2:20 AM)
Average temperature yesterday: 66 °F

Past Weeks' High & Low Weather Summary

 TemperatureHumidityPressure
High90 °F (Sep 1, 4:50 PM)100% (Aug 26, 5:50 AM)30.45 "Hg (Aug 26, 5:50 AM)
Low43 °F (Aug 30, 5:20 AM)22% (Aug 25, 2:50 PM)29.71 "Hg (Sep 1, 4:50 PM)
Average65 °F59%30.14 "Hg
* Reported Aug 17 5:20 PM — Sep 1 5:50 PM, Vilnius, Weather by CustomWeather, © 2015

Note: Actual official high and low records may vary slightly from our data, if they occured in-between our weather recording intervals... More about our weather records

Advertising

Vilnius weather history for previous 24 hours

 ConditionsComfort  
Time TempWeatherWind HumidityBarometerVisibility
5:50 PM
Tue, Sep 1
88 °FSunny.5 mph38%29.71 "Hg10 mi
5:20 PM88 °FSunny.5 mph35%29.71 "Hg10 mi
4:50 PM90 °FSunny.7 mph33%29.71 "Hg10 mi
4:20 PM88 °FPassing clouds.7 mph35%29.74 "HgN/A
3:50 PM88 °FPassing clouds.6 mph38%29.74 "HgN/A
3:20 PM86 °FPassing clouds.9 mph40%29.74 "HgN/A
2:50 PM88 °FPassing clouds.9 mph38%29.74 "HgN/A
2:20 PM84 °FPassing clouds.13 mph43%29.74 "HgN/A
1:50 PM84 °FSunny.14 mph40%29.77 "Hg10 mi
1:20 PM82 °FSunny.13 mph42%29.77 "Hg10 mi
12:50 PM82 °FPassing clouds.10 mph42%29.80 "HgN/A
12:20 PM79 °FSunny.9 mph48%29.80 "Hg10 mi
11:50 AM79 °FPassing clouds.8 mph45%29.80 "HgN/A
11:20 AM77 °FPassing clouds.9 mph44%29.80 "HgN/A
10:50 AM73 °FSunny.10 mph50%29.83 "Hg10 mi
10:20 AM72 °FSunny.9 mph50%29.83 "Hg10 mi
9:50 AM70 °FSunny.12 mph53%29.86 "Hg10 mi
9:20 AM68 °FSunny.10 mph56%29.86 "Hg10 mi
8:50 AM68 °FSunny.13 mph56%29.86 "Hg10 mi
8:20 AM66 °FSunny.10 mph56%29.86 "Hg10 mi
7:50 AM63 °FSunny.8 mph64%29.89 "Hg10 mi
6:20 AM57 °FClear.7 mph72%29.89 "Hg10 mi
5:50 AM59 °FClear.7 mph63%29.92 "Hg10 mi
5:20 AM59 °FClear.6 mph63%29.92 "Hg10 mi
4:50 AM59 °FClear.7 mph63%29.92 "Hg10 mi
4:20 AM59 °FClear.7 mph63%29.95 "Hg10 mi
3:50 AM61 °FClear.6 mph59%29.95 "Hg10 mi
3:20 AM63 °FPassing clouds.3 mph52%29.95 "HgN/A
2:50 AM64 °FClear.6 mph52%29.95 "Hg10 mi
2:20 AM63 °FClear.8 mph59%29.98 "Hg10 mi
1:50 AM63 °FClear.7 mph56%29.98 "Hg10 mi
1:20 AM63 °FClear.1 mph56%29.98 "Hg10 mi
12:20 AM63 °FPassing clouds.1 mph56%30.01 "HgN/A
11:50 PM
Mon, Aug 31
61 °FClear.1 mph59%30.01 "Hg10 mi
11:20 PM61 °FClear.No wind59%30.01 "Hg10 mi
10:50 PM61 °FClear.No wind55%30.01 "Hg10 mi
10:20 PM63 °FClear.2 mph52%30.01 "Hg10 mi
9:50 PM63 °FClear.1 mph52%30.01 "Hg10 mi
9:20 PM63 °FClear.3 mph52%30.01 "Hg10 mi
8:50 PM66 °FSunny.5 mph43%30.04 "Hg10 mi
8:20 PM68 °FSunny.6 mph43%30.04 "Hg10 mi
7:50 PM70 °FSunny.6 mph43%30.04 "Hg10 mi
7:20 PM72 °FSunny.3 mph50%30.01 "Hg10 mi
Weather by CustomWeather, © 2015

See weather overviewHow to use our weather pages